Preview of NWS' New Version of Forecast
This preview is not operational and should not be used for support decisions.
Latest weather observations around

Chanute, Chanute Martin Johnson Airport (KCNU)

Using English Units (Switch to International System of Units)
Date/ Time (CST) Wind (mph) Vis. (mi) Weather Sky Cond. Temp (°F) Rel. Humidity Wind Chill (°F) Heat Index (°F) Pressure Precip. (in)
Air Dwpt 6 hour Altimeter (inHg) Sea level (inHg) 1 hr 3 hr 6 hr
Max Min
Jan 18 06:52 SE 11 0.75 Fog/Mist VV002 38 38     100% 30   29.96 29.97      
Jan 18 06:44 SSE 11 0.75 Fog/Mist VV002 38 38     100% 30   29.96        
Jan 18 06:18 SE 10 1 Fog/Mist VV002 37 37     100% 30   29.95        
Jan 18 06:06 SE 11 1.25 Fog/Mist OVC002 37 37     100% 29   29.96        
Jan 18 05:52 SE 11 0.75 Fog/Mist VV002 37 37     100% 29   29.96 29.98      
Jan 18 05:49 SE 11 0.75 Fog/Mist VV002 37 37     100% 30   29.97        
Jan 18 05:39 SE 8 1 Fog/Mist OVC002 37 37     100% 31   29.98        
Jan 18 04:52 SE 8 1.75 Fog/Mist OVC002 37 37     100% 31   30.01 30.02      
Jan 18 04:34 SE 10 1.5 Fog/Mist OVC002 37 37     100% 30   30.01        
Jan 18 04:15 SE 9 1.25 Fog/Mist OVC002 36 36     100% 29   30.02        
Jan 18 03:52 SE 10 1 Fog/Mist VV002 36 36     100% 29   30.02 30.03      
Jan 18 03:29 SE 9 0.75 Fog/Mist VV002 36 36     100% 29   30.04        
Jan 18 03:22 SE 11 1 Fog/Mist OVC002 36 36     100% 28   30.05        
Jan 18 03:14 SE 11 1.25 Fog/Mist OVC002 36 36     100% 28   30.06        
Jan 18 02:52 SE 9 1.75 Fog/Mist OVC003 36 36     100% 29   30.08 30.09      
Jan 18 02:49 SE 7 2 Fog/Mist OVC003 36 36     100% 30   30.08        
Jan 18 02:30 S 8 5 Fog/Mist OVC003 36 36     100% 30   30.09        
Jan 18 01:52 SSE 9 6 Fog/Mist OVC004 37 36     96% 30   30.09 30.1      
Jan 18 01:35 S 9 6 Fog/Mist OVC004 37 36     96% 30   30.08        
Jan 18 00:52 SSE 10 6 Fog/Mist OVC005 37 36     96% 30   30.1 30.11      
Jan 17 23:52 SSE 5 7 Cloudy OVC006 37 36     96% 33   30.13 30.14      
Jan 17 22:52 E 5 7 Cloudy OVC007 37 36     96% 33   30.13 30.14      
Jan 17 21:52 SE 3 9 Cloudy OVC007 38 36     92% 36   30.15 30.17      
Jan 17 20:52 SW 5 9 Cloudy OVC007 37 36     96% 33   30.16 30.17      
Jan 17 19:52 NNW 3 10 Cloudy OVC008 38 36     92% 36   30.15 30.16      
Jan 17 18:52 Calm 10 Cloudy OVC008 38 36     92%     30.12 30.14      
Jan 17 17:52 NNW 5 10 Cloudy OVC009 39 36     89% 36   30.11 30.13      
Jan 17 16:52 W 9 10 Cloudy OVC009 39 37     93% 33   30.13 30.14      
Jan 17 15:52 WNW 7 10 Cloudy OVC008 39 37     93% 34   30.13 30.14      
Jan 17 14:52 WNW 8 10 Cloudy OVC008 39 37     93% 33   30.12 30.13      
Jan 17 13:52 NNW 7 10 Cloudy OVC007 39 36     89% 34   30.11 30.12      
Jan 17 12:52 NW 8 10 Cloudy OVC007 38 37     97% 32   30.13 30.14      
Jan 17 11:52 NW 10 10 Cloudy OVC006 38 37     97% 31   30.17 30.18      
Jan 17 10:52 NW 10 10 Cloudy OVC005 38 37     97% 31   30.16 30.17      
Jan 17 09:52 NNW 8 9 Cloudy BKN005 OVC048 36 36     100% 30   30.13 30.14      
Jan 17 09:45 NNW 7 9 Cloudy BKN005 OVC048 36 36     100% 30   30.13        
Jan 17 09:19 NNW 8 7 Cloudy OVC004 36 36     100% 30   30.12        
Jan 17 08:52 NNW 8 4 Fog/Mist OVC003 35 35     100% 29   30.11 30.12      
Jan 17 08:02 NNW 9 3 Fog/Mist OVC002 35 35     100% 28   30.11        
Jan 17 07:52 N 10 2.5 Fog/Mist OVC002 35 35     100% 27   30.09 30.1      
Jan 17 07:50 N 10 2.5 Fog/Mist OVC002 36 36     100% 28   30.09        
Jan 17 06:52 NNW 10 5 Fog/Mist OVC002 35 35     100% 27   30.08 30.09      
Jan 17 06:36 N 9 3 Fog/Mist OVC002 35 35     100% 28   30.07        
Jan 17 06:12 N 8 2.5 Fog/Mist OVC002 35 35     100% 29   30.06        
Jan 17 05:59 NNW 9 1.5 Fog/Mist OVC002 35 35     100% 28   30.05        
Jan 17 05:52 NNW 9 1 Fog/Mist VV002 35 35     100% 28   30.06 30.07      
Jan 17 05:36 NNW 8 1 Fog/Mist VV002 35 35     100% 29   30.05        
Jan 17 05:27 N 11 1.25 Fog/Mist OVC002 35 35     100% 27   30.05        
Jan 17 05:07 NNW 8 2 Fog/Mist OVC002 36 36     100% 30   30.04        
Jan 17 05:02 NNW 10 1.25 Fog/Mist OVC002 36 36     100% 29   30.04        
Jan 17 04:52 N 9 0.5 Fog VV002 36 36     100% 29   30.04 30.05      
Jan 17 03:52 N 8 0.25 Fog VV002 36 36     100% 30   30.03 30.04      
Jan 17 02:52 N 7 0.25 Fog VV002 37 37     100% 32   30.03 30.03      
Jan 17 01:52 N 7 0.25 Fog VV002 37 37     100% 32   30.02 30.03      
Jan 17 00:52 Calm 0.5 Fog VV002 40 40     100%     30.03 30.03      
Jan 17 00:14 NE 3 0.75 Fog/Mist VV002 40 40     100% 38   30.03        
Jan 17 00:03 NNE 5 1 Fog/Mist VV002 40 40     100% 37   30.03        
Jan 16 23:52 NE 5 1.25 Fog/Mist OVC002 40 40     100% 37   30.03 30.04      
Jan 16 23:35 E 5 1.75 Fog/Mist OVC002 40 40     100% 37   30.04        
Jan 16 22:52 NNE 3 2 Fog/Mist OVC002 41 41     100% 39   30.05 30.06      
Jan 16 22:43 NE 5 2 Fog/Mist OVC002 41 41     100% 38   30.05        
Jan 16 22:01 N 3 1.75 Fog/Mist OVC002 41 41     100% 39   30.06        
Jan 16 21:52 NE 3 2 Fog/Mist OVC002 41 41     100% 39   30.05 30.06      
Jan 16 20:52 E 8 2 Fog/Mist OVC002 42 42     100% 37   30.04 30.05      
Jan 16 20:43 E 6 2 Fog/Mist OVC003 42 42     100% 38   30.04        
Jan 16 20:31 E 6 1.75 Fog/Mist OVC003 42 42     100% 38   30.04        
Jan 16 19:52 ENE 5 2 Fog/Mist OVC003 42 42     100% 39   30.06 30.07      
Jan 16 19:29 ENE 7 2 Fog/Mist OVC003 42 42     100% 38   30.06        
Jan 16 18:52 E 5 1.75 Fog/Mist OVC003 42 42     100% 39   30.06 30.07      
Jan 16 18:47 E 5 2 Fog/Mist OVC003 43 43     100% 40   30.05        
Jan 16 18:30 E 6 2 Fog/Mist BKN004 OVC010 42 42     100% 38   30.05        
Jan 16 18:19 E 7 1.75 Fog/Mist BKN004 BKN010 OVC014 42 42     100% 38   30.05        
Jan 16 18:11 E 7 2 Fog/Mist SCT004 OVC013 42 42     100% 38   30.04        
Jan 16 17:52 E 7 2 Fog/Mist FEW003 OVC015 42 42     100% 38   30.04 30.05 0   0
Jan 16 17:47 E 7 2 Light Rain and Fog/Mist FEW003 OVC017 43 43     100% 39   30.04   0    
Jan 16 17:30 E 8 1.5 Light Rain and Fog/Mist FEW003 OVC016 42 42     100% 37   30.04   0    
Jan 16 17:19 E 6 1.25 Fog/Mist OVC016 43 42     97% 39   30.05        
Jan 16 17:00 ENE 6 1.25 Fog/Mist OVC013 43 42     97% 39   30.05        
Jan 16 16:52 ENE 7 2 Fog/Mist OVC011 43 42     97% 39   30.05 30.06      
Jan 16 16:44 ENE 6 2.5 Fog/Mist OVC011 43 42     97% 39   30.05        
Jan 16 15:52 NE 6 5 Fog/Mist OVC012 44 42     93% 41   30.06 30.07      
Jan 16 14:52 E 5 6 Fog/Mist OVC014 45 42     90% 43   30.07 30.08      
Jan 16 14:26 ENE 6 6 Fog/Mist FEW008 OVC013 44 42     93% 41   30.07        
Jan 16 14:13 ENE 5 5 Fog/Mist SCT010 OVC015 44 41     89% 41   30.08        
Jan 16 14:01 E 6 5 Fog/Mist BKN010 BKN015 OVC031 43 41     93% 39   30.08        
Jan 16 13:52 E 5 5 Fog/Mist FEW008 SCT012 OVC031 43 41     93% 40   30.08 30.09      
Jan 16 13:36 E 5 5 Fog/Mist FEW008 BKN027 OVC032 43 41     93% 40   30.09        
Jan 16 13:11 E 5 5 Fog/Mist BKN007 OVC025 43 41     93% 40   30.1        
Jan 16 13:00 E 5 5 Fog/Mist SCT006 OVC025 42 40     92% 39   30.1        
Jan 16 12:52 E 6 5 Fog/Mist OVC025 42 40     92% 38   30.11 30.12      
Jan 16 12:18 E 6 4 Fog/Mist SCT005 OVC023 41 40     96% 37   30.13        
Jan 16 11:52 E 6 4 Fog/Mist BKN005 OVC022 41 39     93% 37   30.15 30.16      
Jan 16 11:05 E 5 4 Fog/Mist BKN005 OVC021 40 39     97% 37   30.18        
Jan 16 10:52 Calm 4 Fog/Mist BKN004 OVC021 39 38     96%     30.19 30.2      
Jan 16 10:23 Calm 4 Fog/Mist BKN004 OVC026 39 38     96%     30.19        
Jan 16 09:52 E 6 3 Fog/Mist FEW009 OVC027 37 37     100% 32   30.16 30.17      
Jan 16 09:36 E 3 3 Fog/Mist FEW009 OVC028 37 36     96% 35   30.17        
Jan 16 08:52 ENE 6 3 Fog/Mist SCT022 OVC028 36 36     100% 31   30.18 30.19      
Jan 16 08:38 ENE 3 3 Fog/Mist OVC022 36 36     100% 33   30.18        
Jan 16 08:02 Calm 2 Fog/Mist OVC022 36 36     100%     30.19        
Jan 16 07:52 NE 3 3 Fog/Mist OVC023 35 35     100% 32   30.18 30.2      
Jan 16 06:52 NNE 3 4 Fog/Mist OVC022 36 36     100% 33   30.18 30.2      
Jan 16 05:52 N 5 4 Fog/Mist OVC023 36 35     96% 32   30.16 30.17      
Jan 16 04:52 Calm 4 Fog/Mist OVC023 36 36     100%     30.16 30.17      
Jan 16 03:52 SSE 6 5 Fog/Mist OVC022 36 35     96% 31   30.16 30.18      
Jan 16 03:25 S 7 5 Fog/Mist BKN023 35 35     100% 29   30.17        
Jan 16 02:52 S 7 5 Fog/Mist CLR 35 35     100% 29   30.17 30.18      
Jan 16 01:52 SSW 8 5 Fog/Mist CLR 36 35     96% 30   30.16 30.18      
Jan 16 00:52 SSW 9 6 Fog/Mist CLR 37 35     92% 30   30.17 30.18      
Jan 15 23:52 SSW 13 6 Fog/Mist CLR 37 36     96% 29   30.18 30.19      
Jan 15 22:52 SSW 11 7 Clear CLR 38 36     92% 30   30.18 30.19      
Jan 15 21:52 S 9 7 Clear CLR 38 36     92% 31   30.17 30.19      
Jan 15 20:52 S 9 7 Clear CLR 37 36     96% 30   30.16 30.18      
Jan 15 19:52 S 8 8 Clear CLR 38 37     97% 32   30.15 30.17      
Jan 15 18:52 S 6 6 Fog/Mist CLR 37 36     96% 32   30.14 30.16      
Jan 15 17:52 SSE 6 8 Clear CLR 39 38     96% 35   30.14 30.15      
Jan 15 16:52 S 7 7 Clear CLR 41 38     89% 36   30.14 30.16      
Jan 15 15:52 S 7 7 Clear CLR 41 38     89% 36   30.16 30.17      
Jan 15 15:41 S 8 7 Partly Cloudy SCT011 41 38     89% 36   30.16        
Jan 15 14:52 S 8 6 Fog/Mist OVC010 39 36     89% 33   30.17 30.19      
Jan 15 14:50 S 7 6 Fog/Mist OVC010 39 36     87% 34   30.17        
Jan 15 13:52 S 6 5 Fog/Mist OVC006 36 34     92% 31   30.17 30.19      
Jan 15 12:52 SSW 9 4 Fog/Mist OVC005 34 33     96% 27   30.21 30.23      
Notice The following observation data may not be complete
Jan 15 12:24   4 Fog/Mist OVC005          %              
Jan 15 11:52 S 9 4 Fog/Mist OVC004 33 32     96% 25   30.25 30.27      
Jan 15 11:20 SSW 10 3 Fog/Mist OVC003 33 32     96% 25   30.27        
Jan 15 10:52 S 13 2.5 Fog/Mist OVC003 32 32     100% 22   30.28 30.3      
Jan 15 10:17 S 10 2 Clear   32 31     96% 24   30.28        
Jan 15 10:04 SSW 10 1.75 Clear   32 31     96% 24   30.28        
Jan 15 09:52 S 9 1.25 Clear   31 31     100% 23   30.28 30.3      
Jan 15 08:52 S 8 1 Fog/Mist OVC002 31 31     100% 23   30.27 30.29      
Jan 15 08:14 S 13 0.75 Fog/Mist OVC002 31 31     100% 21   30.27        
Jan 15 07:56 S 13 1 Fog/Mist OVC002 31 31     100% 21   30.26        
Jan 15 07:48 S 13 1.25 Fog/Mist OVC002 31 31     100% 21   30.26 30.28      
Jan 15 07:47 S 13 1.25 Fog/Mist OVC002 30 30     100% 20   30.26        
Notice The following observation data may not be complete
May 15 02:24   10 Light Rain OVC110          %         0    
May 15 02:09   8 Thunderstorms and Rain SCT090 OVC110 64 64     100%     29.99   0    
May 14 20:13 E 10 10 Thunderstorms SCT017 68 66     93%     29.85   0    
May 14 19:52   0.75 Thunderstorms and Heavy Rain and Fog/Mist OVC021 68 66     93%     29.84 29.81 1    
May 13 14:52 S 18 10 Clear CLR 87 71     59%   93 29.94 29.9      
May 13 11:52 S 17 10 Clear CLR 84 70     63%   88 29.98 29.95      
May 11 10:52   10 Clear CLR 78 64     62%   79 29.8 29.77      
Jun 12 00:52 S 11 10 Clear CLR 75 65     71%   76 29.9 29.86      
Jun 11 15:52   10 Clear CLR 89 68     50%   93 29.84 29.8      
Jun 11 13:52   10 Clear CLR 89 69     52%   94 29.87 29.83      
Jun 11 11:52   10 Clear CLR 86 67     53%   89 29.87 29.83      
Jun 10 06:52 SSE 8 10 Mostly Clear FEW035 66 61     84%     29.85 29.82      
Jun 10 02:52 S 9 10 Clear CLR 67 58     73%     29.83 29.79      
Jun 08 16:52 SSE 8 10 Clear CLR 82 52     35%   81 29.96 29.93      
Jun 07 23:52 Calm 10 Clear CLR 58 51     78%     30.05 30.03